Zurück zum Katalog

STARLINK-6117

AktivKommunikationVLEO
NORAD 56130·PAYLOAD·🇺🇸 United States

Gestartet Mar 29, 2023 von Cape Canaveral Space Force Station

Loading…

Nächste Überflüge (nächste 24 Stunden)

TLE

AktuellSource: CelesTrak SupGP

Epoche: Sep 14, 2026, 22:23 UTC

1 56130C 23046AP  26257.93312500 -.00032897  00000+0 -11918-2 0  2574
2 56130  43.0001 158.2030 0001335 264.5851  71.1088 15.27588608    13

Verfolge STARLINK-6117 in Echtzeit mit AllMySat

Download on the App Store